Roswell, NM

4:14 AM MDT on August 19, 2017 (GMT -0600)
Roswell Industrial

Weather History for KROW - September, 2012

Change the Weather History Date:

Wednesday, September 19, 2012

  Actual Average Record
Temperature  
Mean Temperature 74 °F 71 °F  
Max Temperature 94 °F 85 °F 100 °F (1930)
Min Temperature 54 °F 57 °F 41 °F (1968)
Degree Days  
Heating Degree Days 0 1  
Month to date heating degree days 9 2  
Since 1 July heating degree days 9 2  
Cooling Degree Days 9 7  
Month to date cooling degree days 190 174  
Year to date cooling degree days 2218 1698  
Growing Degree Days 24 (Base 50)    
Moisture  
Dew Point 38 °F    
Average Humidity 39    
Maximum Humidity 67    
Minimum Humidity 11    
Precipitation  
Precipitation 0.00 in 0.05 in 1.30 in (1896)
Month to date precipitation 0.80 1.03  
Year to date precipitation 4.80 9.96  
Sea Level Pressure  
Sea Level Pressure 29.93 in    
Wind  
Wind Speed 7 mph (South)    
Max Wind Speed 23 mph    
Max Gust Speed 30 mph    
Visibility 10 miles    
Events      
T = Trace of Precipitation, MM = Missing Value Source: NWS Daily Summary

Daily Weather History Graph

Daily Weather History Graph

Search for Another Location

Airport or City:

Trip Planner

Search our weather history database for the weather conditions in past years. The results will help you decide how hot, cold, wet, or windy it might be!

Date:

Astronomy

Sep. 19, 2012 Rise Set
Actual Time 6:44 AM MDT 6:58 PM MDT
Civil Twilight 6:19 AM MDT 7:22 PM MDT
Nautical Twilight 5:50 AM MDT 7:51 PM MDT
Astronomical Twilight 5:21 AM MDT 8:21 PM MDT
Moon 10:42 AM MDT 9:26 PM MDT
Length of Visible Light 13h 03m
Length of Day
12h 13m
Waxing Crescent, 17% of the Moon is Illuminated
Sep 19
Waxing Crescent
Sep 22
First Quarter
Sep 29
Full
Oct 8
Last Quarter
Oct 15
New

Hourly Weather History & Observations

Time (MDT) Temp. Dew Point Humidity Pressure Visibility Wind Dir Wind Speed Gust Speed Precip Events Conditions
12:51 AM 60.1 °F 46.9 °F 62% 29.99 in 10.0 mi SSW 5.8 mph - N/A   Clear
1:51 AM 64.0 °F 46.9 °F 54% 29.98 in 10.0 mi SSW 9.2 mph - N/A   Clear
2:51 AM 57.9 °F 46.0 °F 65% 29.99 in 10.0 mi SW 3.5 mph - N/A   Clear
3:51 AM 57.9 °F 46.0 °F 65% 29.96 in 10.0 mi South 3.5 mph - N/A   Clear
4:51 AM 57.0 °F 46.0 °F 67% 29.96 in 10.0 mi SSW 4.6 mph - N/A   Clear
5:51 AM 57.9 °F 44.1 °F 60% 29.98 in 10.0 mi Calm Calm - N/A   Clear
6:51 AM 54.0 °F 43.0 °F 66% 30.00 in 10.0 mi Calm Calm - N/A   Clear
7:51 AM 57.9 °F 45.0 °F 62% 30.02 in 10.0 mi Calm Calm - N/A   Clear
8:51 AM 66.0 °F 48.0 °F 52% 30.01 in 10.0 mi SSE 4.6 mph - N/A   Clear
9:51 AM 75.9 °F 44.1 °F 32% 29.99 in 10.0 mi South 6.9 mph - N/A   Clear
10:51 AM 81.0 °F 39.0 °F 22% 29.98 in 10.0 mi Variable 5.8 mph - N/A   Clear
11:51 AM 86.0 °F 37.9 °F 18% 29.96 in 10.0 mi SSE 6.9 mph - N/A   Clear
12:51 PM 89.1 °F 36.0 °F 15% 29.93 in 10.0 mi ESE 5.8 mph - N/A   Clear
1:51 PM 91.9 °F 30.0 °F 11% 29.88 in 10.0 mi SE 10.4 mph 16.1 mph N/A   Clear
2:51 PM 93.0 °F 30.9 °F 11% 29.86 in 10.0 mi Calm Calm - N/A   Clear
3:51 PM 93.0 °F 30.0 °F 11% 29.85 in 10.0 mi ESE 4.6 mph - N/A   Clear
4:51 PM 93.0 °F 33.1 °F 12% 29.84 in 10.0 mi SE 13.8 mph 21.9 mph N/A   Clear
4:58 PM 91.4 °F 33.8 °F 13% 30.03 in 10.0 mi SSE 6.9 mph - N/A   Clear
5:51 PM 91.0 °F 30.0 °F 11% 29.85 in 10.0 mi SSE 16.1 mph - N/A   Clear
6:51 PM 87.1 °F 28.0 °F 12% 29.87 in 10.0 mi SSE 11.5 mph - N/A   Clear
7:51 PM 80.1 °F 30.0 °F 16% 29.89 in 10.0 mi South 11.5 mph - N/A   Clear
8:51 PM 79.0 °F 34.0 °F 20% 29.89 in 10.0 mi South 13.8 mph - N/A   Clear
9:51 PM 77.0 °F 37.9 °F 24% 29.88 in 10.0 mi SSE 11.5 mph 21.9 mph N/A   Clear
10:51 PM 73.9 °F 37.0 °F 26% 29.89 in 10.0 mi South 11.5 mph - N/A   Clear
11:51 PM 75.0 °F 39.0 °F 27% 29.86 in 10.0 mi SSW 17.3 mph 21.9 mph N/A   Clear